Weather History for KOCW - November, 2013

Change the Weather History Date:

Saturday, November 9, 2013

  Actual Average (KEWN) Record (KEWN)
Temperature  
Mean Temperature 47 °F 57 °F  
Max Temperature 62 °F 68 °F 83 °F (1986)
Min Temperature 33 °F 46 °F 22 °F (1967)
Degree Days  
Heating Degree Days 18 9  
Month to date heating degree days 69  
Since 1 July heating degree days 186  
Cooling Degree Days 0 1  
Month to date cooling degree days 9  
Year to date cooling degree days 1894  
Moisture  
Dew Point 35 °F    
Average Humidity 66    
Maximum Humidity 88    
Minimum Humidity 27    
Precipitation  
Precipitation 0.00 in 0.12 in 1.24 in (1962)
Month to date precipitation 0.98  
Year to date precipitation 46.93  
Snow  
Snow 0.00 in - - ()
Month to date snowfall  
Since 1 July snowfall  
Snow Depth -    
Sea Level Pressure  
Sea Level Pressure 30.31 in    
Wind  
Wind Speed 2 mph (SSW)    
Max Wind Speed 10 mph    
Max Gust Speed -    
Visibility 10 miles    
Events      
T = Trace of Precipitation, MM = Missing Value Source: NWS Daily Summary

Daily Weather History Graph

Daily Weather History Graph

Search for Another Location

Airport or City:

Trip Planner

Search our weather history database for the weather conditions in past years. The results will help you decide how hot, cold, wet, or windy it might be!

Date:

Astronomy

Nov. 09, 2013 Rise Set
Actual Time 6:38 AM EST 5:05 PM EST
Civil Twilight 6:11 AM EST 5:32 PM EST
Nautical Twilight 5:40 AM EST 6:02 PM EST
Astronomical Twilight 5:10 AM EST 6:32 PM EST
Moon 12:15 PM EST (11/9) 11:30 PM EST (11/9)
Length of Visible Light 11h 21m
Length of Day
10h 27m
Waxing Crescent, 44% of the Moon is Illuminated
Nov 9
Waxing Crescent
Nov 10
First Quarter
Nov 17
Full
Nov 25
Last Quarter
Dec 2
New

Hourly Weather History & Observations

Time (EST) Temp. Dew Point Humidity Pressure Visibility Wind Dir Wind Speed Gust Speed Precip Events Conditions
12:15 AM 37.6 °F 33.8 °F 86% 30.33 in 10.0 mi Calm Calm - N/A   Clear
12:35 AM 37.6 °F 33.8 °F 86% 30.32 in 10.0 mi Calm Calm - N/A   Clear
12:55 AM 37.6 °F 33.8 °F 86% 30.34 in 10.0 mi Calm Calm - N/A   Clear
1:15 AM 37.6 °F 33.8 °F 86% 30.34 in 10.0 mi Calm Calm - N/A   Clear
1:35 AM 37.6 °F 33.8 °F 86% 30.34 in 10.0 mi Calm Calm - N/A   Clear
1:55 AM 37.6 °F 33.8 °F 86% 30.33 in 10.0 mi Calm Calm - N/A   Clear
2:15 AM 37.0 °F 33.3 °F 86% 30.34 in 10.0 mi Calm Calm - N/A   Clear
2:35 AM 35.1 °F 31.6 °F 87% 30.34 in 10.0 mi Calm Calm - N/A   Clear
2:55 AM 35.1 °F 31.6 °F 87% 30.34 in 10.0 mi Calm Calm - N/A   Clear
3:15 AM 35.1 °F 31.6 °F 87% 30.34 in 10.0 mi Calm Calm - N/A   Clear
3:35 AM 34.9 °F 31.5 °F 87% 30.34 in 10.0 mi Calm Calm - N/A   Clear
3:55 AM 35.1 °F 31.6 °F 87% 30.34 in 10.0 mi Calm Calm - N/A   Clear
4:15 AM 34.7 °F 31.5 °F 88% 30.34 in 10.0 mi Calm Calm - N/A   Clear
4:35 AM 35.1 °F 31.6 °F 87% 30.34 in 10.0 mi Calm Calm - N/A   Clear
4:55 AM 35.1 °F 31.6 °F 87% 30.33 in 10.0 mi Calm Calm - N/A   Clear
5:15 AM 33.8 °F 30.4 °F 87% 30.33 in 10.0 mi Calm Calm - N/A   Clear
5:35 AM 33.4 °F 30.2 °F 88% 30.35 in 10.0 mi Calm Calm - N/A   Clear
5:55 AM 35.1 °F 31.6 °F 87% 30.35 in 10.0 mi Calm Calm - N/A   Clear
6:15 AM 34.2 °F 30.7 °F 87% 30.36 in 10.0 mi Calm Calm - N/A   Clear
6:35 AM 35.1 °F 31.6 °F 87% 30.36 in 10.0 mi Calm Calm - N/A   Clear
6:55 AM 34.0 °F 30.6 °F 87% 30.37 in 10.0 mi Calm Calm - N/A   Clear
7:15 AM 33.6 °F 30.2 °F 87% 30.37 in 10.0 mi Calm Calm - N/A   Clear
7:35 AM 35.1 °F 31.6 °F 87% 30.37 in 10.0 mi Calm Calm - N/A   Clear
7:55 AM 37.6 °F 33.8 °F 86% 30.38 in 10.0 mi Calm Calm - N/A   Clear
8:15 AM 41.7 °F 37.6 °F 85% 30.39 in 10.0 mi Calm Calm - N/A   Clear
8:35 AM 43.9 °F 39.4 °F 84% 30.39 in 10.0 mi Calm Calm - N/A   Clear
8:55 AM 46.4 °F 40.3 °F 79% 30.39 in 10.0 mi Calm Calm - N/A   Clear
9:15 AM 50.2 °F 42.1 °F 74% 30.39 in 10.0 mi East 3.5 mph - N/A   Clear
9:35 AM 52.7 °F 40.8 °F 64% 30.39 in 10.0 mi East 4.6 mph - N/A   Clear
9:55 AM 52.7 °F 37.9 °F 57% 30.39 in 10.0 mi ESE 5.8 mph - N/A   Clear
10:15 AM 53.8 °F 36.9 °F 53% 30.38 in 10.0 mi ESE 4.6 mph - N/A   Clear
10:35 AM 55.2 °F 35.8 °F 48% 30.38 in 10.0 mi SSE 4.6 mph - N/A   Clear
10:55 AM 55.6 °F 25.5 °F 31% 30.37 in 10.0 mi SSE 6.9 mph - N/A   Clear
11:15 AM 58.1 °F 28.8 °F 33% 30.37 in 10.0 mi South 4.6 mph - N/A   Clear
11:35 AM 58.1 °F 34.3 °F 41% 30.35 in 10.0 mi Calm Calm - N/A   Clear
11:55 AM 58.1 °F 34.9 °F 42% 30.34 in 10.0 mi Calm Calm - N/A   Clear
12:15 PM 58.1 °F 30.7 °F 35% 30.32 in 10.0 mi South 3.5 mph - N/A   Clear
12:35 PM 58.1 °F 30.9 °F 36% 30.31 in 10.0 mi SSE 6.9 mph - N/A   Clear
12:55 PM 58.3 °F 31.6 °F 36% 30.29 in 10.0 mi SSW 10.4 mph - N/A   Clear
1:15 PM 59.5 °F 30.6 °F 33% 30.29 in 10.0 mi South 6.9 mph - N/A   Clear
1:35 PM 60.1 °F 31.6 °F 34% 30.28 in 10.0 mi WSW 6.9 mph - N/A   Clear
1:55 PM 60.4 °F 29.8 °F 31% 30.27 in 10.0 mi SW 9.2 mph - N/A   Clear
2:15 PM 61.7 °F 28.2 °F 28% 30.27 in 10.0 mi SSW 10.4 mph - N/A   Clear
2:35 PM 61.0 °F 28.2 °F 29% 30.27 in 10.0 mi SW 8.1 mph - N/A   Clear
2:55 PM 60.4 °F 28.8 °F 30% 30.26 in 10.0 mi SW 6.9 mph - N/A   Clear
3:15 PM 60.4 °F 28.6 °F 30% 30.26 in 10.0 mi SSW 6.9 mph - N/A   Clear
3:35 PM 60.4 °F 27.3 °F 28% 30.26 in 10.0 mi SSW 8.1 mph - N/A   Clear
3:55 PM 60.6 °F 26.2 °F 27% 30.26 in 10.0 mi SW 9.2 mph - N/A   Clear
4:15 PM 60.4 °F 27.7 °F 29% 30.25 in 10.0 mi SSW 6.9 mph - N/A   Clear
4:35 PM 58.6 °F 27.7 °F 31% 30.26 in 10.0 mi WSW 5.8 mph - N/A   Clear
4:55 PM 58.1 °F 31.3 °F 36% 30.26 in 10.0 mi SW 4.6 mph - N/A   Clear
5:15 PM 55.8 °F 35.1 °F 46% 30.26 in 10.0 mi Calm Calm - N/A   Clear
5:35 PM 52.7 °F 39.6 °F 61% 30.27 in 10.0 mi Calm Calm - N/A   Clear
5:55 PM 52.7 °F 39.4 °F 61% 30.27 in 10.0 mi Calm Calm - N/A   Clear
6:15 PM 52.7 °F 42.3 °F 68% 30.27 in 10.0 mi Calm Calm - N/A   Clear
6:35 PM 52.7 °F 41.4 °F 65% 30.27 in 10.0 mi Calm Calm - N/A   Clear
6:55 PM 52.7 °F 41.4 °F 65% 30.27 in 10.0 mi Calm Calm - N/A   Clear
7:15 PM 50.2 °F 43.9 °F 79% 30.26 in 10.0 mi Calm Calm - N/A   Clear
7:35 PM 51.6 °F 44.8 °F 77% 30.27 in 10.0 mi Calm Calm - N/A   Clear
7:55 PM 50.2 °F 43.7 °F 78% 30.27 in 10.0 mi Calm Calm - N/A   Clear
8:15 PM 50.2 °F 43.3 °F 77% 30.26 in 10.0 mi Calm Calm - N/A   Clear
8:35 PM 50.2 °F 45.1 °F 83% 30.26 in 10.0 mi Calm Calm - N/A   Clear
8:55 PM 49.5 °F 44.4 °F 83% 30.24 in 10.0 mi Calm Calm - N/A   Clear
9:35 PM 50.2 °F 44.8 °F 82% 30.23 in 7.0 mi Calm Calm - N/A   Clear
9:55 PM 52.7 °F 45.5 °F 76% 30.21 in 10.0 mi South 3.5 mph - N/A   Clear
10:15 PM 52.7 °F 43.3 °F 70% 30.21 in 10.0 mi Calm Calm - N/A   Clear
10:35 PM 52.7 °F 44.6 °F 74% 30.20 in 10.0 mi Calm Calm - N/A   Clear
10:55 PM 52.7 °F 45.9 °F 78% 30.21 in 10.0 mi SSW 4.6 mph - N/A   Clear
11:15 PM 52.7 °F 46.6 °F 80% 30.21 in 10.0 mi SW 3.5 mph - N/A   Clear
11:35 PM 52.7 °F 46.8 °F 80% 30.21 in 10.0 mi SW 4.6 mph - N/A   Clear
11:55 PM 52.7 °F 47.1 °F 81% 30.20 in 10.0 mi SSW 4.6 mph - N/A   Clear